COSMOS 1275 DEB, 12703

Orbit data source: Space-Track

COSMOS 1275 DEB, 12703 is space debris in LEO originally from a launch on Thu, 04 Jun 1981 UTC launched from the Plesetsk Missile And Space Complex (PKMTR). Debris objects in space refer to the collection of defunct objects orbiting the Earth. Examples of debris include non-operational satellites, rocket bodies, and fragments generated from explosions, collisions, or faulty payload assembly.

Loading next visibility...
Identifier
12703, 1981-053AX
Orbit
LEO
Country
Flag of CISCIS
Related business
Manufacturer
Unknown
Mission
Spacecraft
Bus & Motor
Unknown
Mass
Unknown
Launch date (UTC)
1981-06-04 (44 years ago)
Launch vehicle
Unknown
Launch site
Plesetsk Missile And Space Complex (PKMTR)
Object type
Payload
Rocket body
Debris
Shape & HBR
Unknown shape, 0.1 m
Radar Cross Section
Small (<0.1 m²)

Expand to show TLE details & history
Last TLE update: 11 hours ago

TLE from 11 hours ago
0 COSMOS 1275 DEB
1 12703U 81053AX  25309.19412625  .00001817  00000-0  10027-2 0  9998
2 12703  82.9703  12.6236 0012753 278.4540  81.5190 14.10967910255512
Epoch: 2025-11-05T04:39Z
TLE epoch observation values (Epoch: 2025-11-05T04:39:32.508Z)
Latitude
-0.00005°
Longitude
-101.93216°
Altitude
857.663 km
Speed
7.424 km/s
True Right ascension
00h 50m 29s
True Declination
0° 00' 00"
Sunlit
Object was in full shadow at epoch
Visualization orbit readout
Latitude
Unknown
Longitude
Unknown
Altitude
Unknown
Speed
Unknown
Apparent Right ascension
Unknown
Apparent Declination
Unknown
Sunlit
N/A
Visualization observer readout
Local Sidereal Time
11:41:22
Azimuth
Unknown
Elevation
Unknown
Doppler factor
Unknown
Orbital elements
Apogee altitude
862.382 km
Perigee altitude
843.937 km
Semi-major axis
7,231.297 km
Eccentricity
0.00128
Inclination
82.9703°
RAAN
12.6236°
Arg. of periapsis
278.454°
True anomaly
81.66357°
Mean anomaly
81.519°
Eccentric anomaly
81.59128°
Mean motion
3.52955 °/min
Orbital period
102 mins
BSTAR
0.0010027
Loading maneuver chart data...
Computing Atmospheric mass density...

Documentation

Showing up to 5 results
|